Location: Port Hueneme
(34.1478°N, 119.1951°W)
Time: 21:42:01
(UTC+00:00)

ATLAS 5 CENTAUR R/B - Visible Passes

Search period start: 18 November 2025 00:00
Search period end: 28 November 2025 00:00
Orbit: 375 x 1092 km, 63.3° (Epoch: 17 November)

Date Brightness Start Highest point End Pass type
(mag) Time Alt. Az. Time Alt. Az. Time Alt. Az.
18 Nov 2.0 01:17:02 10° NNW 01:21:49 64° ENE 01:27:42 10° SE visible
18 Nov 5.0 03:01:03 10° WNW 03:04:13 16° WSW 03:07:41 10° SSW visible
19 Nov 4.1 02:11:30 10° NW 02:15:56 31° WSW 02:21:11 10° S visible
20 Nov 2.8 01:22:44 10° NW 01:27:35 59° WSW 01:33:31 10° SSE visible
21 Nov 5.4 02:18:48 10° W 02:21:32 14° WSW 02:24:30 10° SW visible
22 Nov 4.5 01:28:51 10° WNW 01:33:10 27° WSW 01:38:12 10° S visible
24 Nov 5.8 01:36:19 10° W 01:38:31 12° WSW 01:40:52 10° SW visible
25 Nov 3.5 13:33:50 10° SSE 13:36:15 21° ESE 13:38:37 10° ENE visible
27 Nov 0.5 13:38:13 10° SSW 13:41:13 84° ESE 13:44:14 10° NNE visible
